Flag for Switzerland Weather past 2 weeks in Küsnacht, Zurich, Switzerland

Now
63 °F

Mild.


Feels Like: 63 °F
Forecast: 50 / 74 °F
Wind: 6 mph from Northwest

Location: Zurich Town / Ville.

Current Time: Aug 27, 2014 at 1:21:43 PM

Latest Report: Aug 27, 2014 at 12:00 PM


Visibility: N/A

Pressure: 29.99 "Hg

Humidity: 76%

Dew point: 55 °F

Location of KüsnachtLocation

Historic Weather in Küsnacht — Graph

°F

Küsnacht temperature yesterday

Maximum temperature yesterday: 64 °F (at 9:00 PM)
Minimum temperature yesterday: 55 °F (at 5:00 AM)
Average temperature yesterday: 59 °F

Past Weeks' High & Low Weather Summary

 TemperatureHumidityPressure
High71 °F (Aug 18, 2:00 PM)98% (Aug 19, 8:00 AM)30.22 "Hg (Aug 19, 8:00 AM)
Low49 °F (Aug 17, 7:00 AM)42% (Aug 21, 4:00 PM)29.68 "Hg (Aug 13, 10:00 AM)
Average58 °F75%29.99 "Hg
* Reported Aug 12 12:00 Noon — Aug 27 12:00 Noon, Küsnacht, Weather by CustomWeather, © 2014

Note: Actual official high and low records may vary slightly from our data, if they occured in-between our weather recording intervals... More about our weather records

Advertising

Küsnacht weather history for previous 24 hours

 ConditionsComfort  
Time TempWeatherWind HumidityBarometerVisibility
12:00 PM
Aug 27
63 °FMild.6 mph76%29.99 "HgN/A
11:00 AM63 °FMild.8 mph79%29.98 "HgN/A
10:00 AM60 °FCool.7 mph88%29.98 "HgN/A
9:00 AM59 °FCool.6 mph94%29.97 "HgN/A
8:00 AM58 °FPassing clouds.6 mph96%29.95 "HgN/A
7:00 AM57 °FCool.6 mph95%29.93 "HgN/A
6:00 AM58 °FCool.5 mph92%29.92 "HgN/A
5:00 AM58 °FCool.6 mph94%29.90 "HgN/A
4:00 AM58 °FCool.5 mph94%29.90 "HgN/A
3:00 AM57 °FCool.5 mph96%29.90 "HgN/A
2:00 AM57 °FCool.6 mph96%29.88 "HgN/A
1:00 AM57 °FCool.6 mph95%29.88 "HgN/A
12:00 AM63 °FMild.10 mph74%29.85 "HgN/A
11:00 PM
Aug 26
63 °FMild.8 mph74%29.83 "HgN/A
10:00 PM62 °FMild.10 mph77%29.83 "HgN/A
9:00 PM64 °FMild.12 mph73%29.81 "HgN/A
8:00 PM64 °FMild.10 mph78%29.79 "HgN/A
7:00 PM64 °FMild.13 mph82%29.77 "HgN/A
6:00 PM63 °FMild.12 mph87%29.77 "HgN/A
5:00 PM62 °FCool.8 mph92%29.78 "HgN/A
4:00 PM61 °FCool.6 mph96%29.80 "HgN/A
3:00 PM61 °FCool.7 mph95%29.80 "HgN/A
2:00 PM60 °FOvercast.7 mph95%29.81 "HgN/A
1:00 PM60 °FCool.5 mph94%29.82 "HgN/A
Weather by CustomWeather, © 2014

See weather overviewHow to use our weather pages